This demonstration page uses our WeatherBlox Daily Observations layout. Learn more.

38.89511, -77.03637

Hourly Observations for December 4, 2018

Temp ( °F °C ) Dew Point ( °F °C ) Humidity (%) Winds ( mph kmh ) Pressure ( in mb ) Visibility ( mi km ) Precip ( " mm )
12:52 am 00:52 Mostly Cloudy 46 7.8 33 0.6 61 61 NW 15 24 29.85 1011 10 16.09344 0 0
1:52 am 01:52 Mostly Cloudy 46 7.8 33 0.6 61 61 NW 16 26 29.88 1012 10 16.09344 0 0
2:52 am 02:52 Partly Cloudy 44 6.7 31 -0.6 60 60 NNW 15 24 29.91 1013 10 16.09344 0 0
3:52 am 03:52 Partly Cloudy 43 6.1 28 -2.2 56 56 NW 14 22 29.94 1014 10 16.09344 0 0
4:52 am 04:52 Mostly Cloudy 42 5.6 28 -2.2 58 58 NW 8 13 29.97 1015 10 16.09344 0 0
5:52 am 05:52 Cloudy 42 5.6 27 -2.8 55 55 NW 7 11 29.97 1015 10 16.09344 0 0
6:52 am 06:52 Cloudy 42 5.6 28 -2.2 58 58 NW 9 15 30 1016 10 16.09344 0 0
7:52 am 07:52 Cloudy 43 6.1 28 -2.2 56 56 NW 10 17 30.03 1017 10 16.09344 0 0
8:52 am 08:52 Cloudy 43 6.1 28 -2.2 56 56 NNW 10 17 30.03 1017 10 16.09344 0 0
9:52 am 09:52 Cloudy 43 6.1 26 -3.3 51 51 N 16 26 30.06 1018 10 16.09344 0 0
10:52 am 10:52 Cloudy 44 6.7 25 -3.9 47 47 NNW 14 22 30.06 1018 10 16.09344 0 0
11:52 am 11:52 Cloudy 45 7.2 24 -4.4 44 44 N 15 24 30.06 1018 10 16.09344 0 0
12:52 pm 12:52 Cloudy 44 6.7 24 -4.4 45 45 NNW 14 22 30.03 1017 10 16.09344 0 0
1:52 pm 13:52 Cloudy 43 6.1 24 -4.4 47 47 NW 14 22 30.03 1017 10 16.09344 0 0
2:52 pm 14:52 Cloudy 43 6.1 23 -5 45 45 NNW 15 24 30.03 1017 10 16.09344 0 0
3:52 pm 15:52 Cloudy 41 5 22 -5.6 47 47 N 14 22 30.03 1017 10 16.09344 0 0
4:52 pm 16:52 Mostly Cloudy 41 5 20 -6.7 43 43 NNW 9 15 30.03 1017 10 16.09344 0 0
5:52 pm 17:52 Mostly Cloudy 41 5 22 -5.6 47 47 W 8 13 30.06 1018 10 16.09344 0 0
6:52 pm 18:52 Mostly Cloudy 40 4.4 22 -5.6 49 49 WNW 8 13 30.09 1019 10 16.09344 0 0
7:52 pm 19:52 Mostly Cloudy 40 4.4 22 -5.6 49 49 NW 12 19 30.09 1019 10 16.09344 0 0
8:52 pm 20:52 Partly Cloudy 38 3.3 22 -5.6 52 52 NNW 10 17 30.09 1019 10 16.09344 0 0
9:52 pm 21:52 Mostly Clear 38 3.3 21 -6.1 51 51 NNW 12 19 30.09 1019 10 16.09344 0 0
10:52 pm 22:52 Mostly Cloudy 37 2.8 21 -6.1 52 52 NNW 9 15 30.09 1019 10 16.09344 0 0
11:52 pm 23:52 Mostly Cloudy 37 2.8 22 -5.6 54 54 NNW 9 15 30.09 1019 10 16.09344 0 0

Powered by AerisWeather